CW8968 Weather Reports


time (UTC)temp
C
wind
direction
speed
KPH
gust
KPH
rain 1hr
cm
rain 24hr
cm
rain mn
cm
humidity
%
barometer
mb
20260503005100 13 43 3.2 9.7 0.00 0.00 0.00 92
20260503004559 13 43 0.0 6.4 0.00 0.00 0.00 91
20260503004059 13 43 3.2 9.7 0.00 0.00 0.00 91
20260503003831 13 43 4.8 9.7 0.00 0.00 0.00 91
20260503003058 13 43 3.2 8.0 0.00 0.00 0.00 91
20260503002600 13 43 1.6 6.4 0.00 0.00 0.00 91
20260503002058 13 43 0.0 0.0 0.00 0.00 0.00 91
20260503001552 13 43 0.0 0.0 0.00 0.00 0.00 90
20260503001040 13 43 0.0 0.0 0.00 0.00 0.00 90
20260503000530 13 43 0.0 0.0 0.00 0.00 0.00 90
20260503000031 13 43 0.0 0.0 0.00 0.00 0.00 90
20260503000026 13 43 0.0 0.0 0.00 0.00 0.00 90
20260502235025 13 43 0.0 0.0 0.00 0.00 0.00 90
20260502234523 14 43 0.0 0.0 0.00 0.00 0.00 90
20260502234022 14 43 0.0 0.0 0.00 0.00 0.00 90
20260502233521 14 43 1.6 8.0 0.00 0.00 0.00 90
20260502233252 14 43 1.6 8.0 0.00 0.00 0.00 90
20260502232753 14 43 3.2 8.0 0.00 0.00 0.00 90
20260502232020 14 43 6.4 12.9 0.00 0.00 0.00 90
20260502231521 14 43 9.7 14.5 0.00 0.00 0.00 90
20260502231020 14 44 11.3 19.3 0.00 0.00 0.00 90
20260502230523 14 37 14.5 22.5 0.00 0.00 0.00 90
20260502230018 15 38 14.5 22.5 0.00 0.00 0.00 91
20260502225518 15 38 16.1 25.7 0.00 0.00 0.00 91
20260502225017 15 46 19.3 32.2 0.00 0.00 0.00 91
20260502224516 15 44 19.3 32.2 0.00 0.00 0.00 91
20260502224018 15 46 17.7 30.6 0.00 0.00 0.00 91
20260502223517 15 41 19.3 30.6 0.00 0.00 0.00 91
20260502223016 15 39 17.7 32.2 0.00 0.00 0.00 91
20260502222515 15 36 16.1 32.2 0.00 0.00 0.00 91
20260502222018 15 38 14.5 22.5 0.00 0.00 0.00 91
20260502221515 15 36 12.9 19.3 0.00 0.00 0.00 90
20260502221013 15 42 12.9 19.3 0.00 0.00 0.00 92
20260502220513 16 42 12.9 22.5 0.00 0.00 0.00 90
20260502220014 15 54 8.0 22.5 0.00 0.00 0.00 90
20260502215513 15 71 4.8 17.7 0.00 0.00 0.00 91
20260502215013 15 68 6.4 20.9 0.00 0.00 0.00 91
20260502214509 15 154 11.3 20.9 0.00 0.00 0.00 90
20260502214004 15 60 12.9 20.9 0.00 0.00 0.00 90
20260502213450 15 49 11.3 20.9 0.00 0.00 0.00 90
20260502212949 15 51 11.3 16.1 0.00 0.00 0.00 90
20260502212944 15 49 11.3 17.7 0.00 0.00 0.00 89
20260502211936 15 49 11.3 17.7 0.00 0.00 0.00 89
20260502211430 15 49 11.3 19.3 0.00 0.00 0.00 89
20260502210921 15 48 11.3 16.1 0.00 0.00 0.00 88
20260502210420 15 50 9.7 16.1 0.00 0.00 0.00 87
20260502205913 15 35 9.7 16.1 0.00 0.00 0.00 87
20260502205407 15 24 9.7 16.1 0.00 0.00 0.00 87
20260502204902 16 10 11.3 16.1 0.00 0.00 0.00 86
20260502204354 16 10 9.7 14.5 0.00 0.00 0.00 86
20260502203848 16 9 8.0 14.5 0.00 0.00 0.00 86
20260502203342 16 9 6.4 11.3 0.00 0.00 0.00 85
20260502202835 16 9 8.0 12.9 0.00 0.00 0.00 85
20260502202329 16 5 6.4 12.9 0.00 0.00 0.00 85
20260502201824 16 5 3.2 11.3 0.00 0.00 0.00 85
20260502201317 16 5 1.6 9.7 0.00 0.00 0.00 85
20260502200812 16 5 0.0 4.8 0.00 0.00 0.00 84
20260502200301 16 5 0.0 4.8 0.00 0.00 0.00 84
20260502195758 16 5 0.0 0.0 0.00 0.00 0.00 82
20260502195253 16 5 0.0 1.6 0.00 0.00 0.00 82
20260502194748 16 5 0.0 1.6 0.00 0.00 0.00 81
20260502194243 17 5 0.0 0.0 0.00 0.00 0.00 80
20260502193735 17 5 0.0 8.0 0.00 0.00 0.00 80
20260502193230 17 5 1.6 12.9 0.00 0.00 0.00 80
20260502192719 17 5 1.6 12.9 0.00 0.00 0.00 79
20260502192219 17 290 0.0 3.2 0.00 0.00 0.00 77
20260502191711 18 289 0.0 0.0 0.00 0.00 0.00 76
20260502191206 18 289 0.0 0.0 0.00 0.00 0.00 75
20260502190659 19 289 0.0 0.0 0.00 0.00 0.00 75
20260502190421 19 289 0.0 3.2 0.00 0.00 0.00 74
20260502185648 20 290 0.0 3.2 0.00 0.00 0.00 73
20260502185141 20 288 0.0 8.0 0.00 0.00 0.00 73
20260502184635 20 288 0.0 8.0 0.00 0.00 0.00 72
20260502184130 20 288 0.0 9.7 0.00 0.00 0.00 71
20260502183624 20 287 0.0 9.7 0.00 0.00 0.00 70
20260502183117 21 288 0.0 3.2 0.00 0.00 0.00 69
20260502182611 21 287 0.0 6.4 0.00 0.00 0.00 68
20260502182105 21 287 0.0 6.4 0.00 0.00 0.00 67
20260502181600 21 276 1.6 8.0 0.00 0.00 0.00 67
20260502181053 22 262 1.6 8.0 0.00 0.00 0.00 66
20260502180547 22 269 0.0 8.0 0.00 0.00 0.00 65
20260502170436 23 261 4.8 19.3 0.00 0.00 0.00 60
20260502163905 23 259 4.8 22.5 0.00 0.00 0.00 60
20260502163355 23 185 4.8 22.5 0.00 0.00 0.00 60
20260502163124 23 220 4.8 25.7 0.00 0.00 0.00 61
20260502162617 23 290 8.0 25.7 0.00 0.00 0.00 60
20260502161841 23 217 4.8 20.9 0.00 0.00 0.00 60
20260502161335 23 218 3.2 12.9 0.00 0.00 0.00 60
20260502161100 23 213 4.8 12.9 0.00 0.00 0.00 60
20260502160323 23 186 4.8 14.5 0.00 0.00 0.00 60
20260502152236 23 256 6.4 24.1 0.00 0.00 0.00 60
20260502151731 23 252 4.8 22.5 0.00 0.00 0.00 60
20260502151223 23 292 6.4 32.2 0.00 0.00 0.00 60
20260502150717 23 215 9.7 30.6 0.00 0.00 0.00 60
20260502150713 23 292 8.0 32.2 0.00 0.00 0.00 60
20260502130445 24 198 9.7 29.0 0.00 0.00 0.00 51
20260502123412 25 202 9.7 35.4 0.00 0.00 0.00 50
20260502123408 25 210 11.3 35.4 0.00 0.00 0.00 50
20260502122400 25 227 12.9 35.4 0.00 0.00 0.00 49
20260502121849 25 229 14.5 38.6 0.00 0.00 0.00 50
20260502121348 25 198 11.3 38.6 0.00 0.00 0.00 50
20260502121113 24 232 9.7 29.0 0.00 0.00 0.00 49
20260502120333 25 182 11.3 27.4 0.00 0.00 0.00 46
20260502115830 25 234 14.5 38.6 0.00 0.00 0.00 46
20260502115328 25 232 11.3 38.6 0.00 0.00 0.00 46
20260502114812 25 217 9.7 25.7 0.00 0.00 0.00 46
20260502114310 25 261 11.3 33.8 0.00 0.00 0.00 45
20260502114035 25 213 8.0 33.8 0.00 0.00 0.00 46
20260502113253 25 194 11.3 27.4 0.00 0.00 0.00 45
20260502112751 24 176 11.3 33.8 0.00 0.00 0.00 47
20260502112244 24 202 9.7 33.8 0.00 0.00 0.00 46
20260502111731 24 223 11.3 32.2 0.00 0.00 0.00 45
20260502111230 24 170 8.0 27.4 0.00 0.00 0.00 46
20260502110952 24 206 6.4 27.4 0.00 0.00 0.00 45
20260502110445 24 229 11.3 32.2 0.00 0.00 0.00 46
20260502105709 24 218 12.9 32.2 0.00 0.00 0.00 45
20260502105206 24 143 12.9 35.4 0.00 0.00 0.00 45
20260502104706 24 178 9.7 35.4 0.00 0.00 0.00 44
20260502104204 23 198 9.7 30.6 0.00 0.00 0.00 42
20260502103703 23 176 8.0 30.6 0.00 0.00 0.00 43
20260502103442 23 194 4.8 20.9 0.00 0.00 0.00 46
20260502102931 23 188 6.4 20.9 0.00 0.00 0.00 46
20260502102201 23 128 6.4 20.9 0.00 0.00 0.00 45
20260502101658 22 220 6.4 27.4 0.00 0.00 0.00 46
20260502101157 22 199 9.7 27.4 0.00 0.00 0.00 46
20260502100927 22 130 9.7 22.5 0.00 0.00 0.00 46
20260502100427 22 182 8.0 20.9 0.00 0.00 0.00 48
20260502091122 23 188 8.0 27.4 0.00 0.00 0.00 44
20260502090615 22 181 6.4 27.4 0.00 0.00 0.00 47
20260502090108 22 198 8.0 20.9 0.00 0.00 0.00 47
20260502071511 18 167 12.9 27.4 0.00 0.00 0.00 55
20260502071241 18 185 11.3 27.4 0.00 0.00 0.00 55
20260502070514 18 192 6.4 27.4 0.00 0.00 0.00 57
20260502070013 17 155 4.8 20.9 0.00 0.00 0.00 58
20260502065507 17 190 8.0 29.0 0.00 0.00 0.00 59
20260502064952 17 185 12.9 35.4 0.00 0.00 0.00 59
20260502064446 16 158 11.3 35.4 0.00 0.00 0.00 60
20260502063948 16 185 8.0 29.0 0.00 0.00 0.00 61
20260502063446 16 176 8.0 22.5 0.00 0.00 0.00 62
20260502062949 16 163 8.0 22.5 0.00 0.00 0.00 63
20260502062450 15 211 4.8 19.3 0.00 0.00 0.00 63
20260502061948 15 179 3.2 16.1 0.00 0.00 0.00 63
20260502061446 15 154 1.6 12.9 0.00 0.00 0.00 64
20260502060947 15 153 1.6 12.9 0.00 0.00 0.00 65
20260502060447 14 147 1.6 9.7 0.00 0.00 0.00 65
20260502055948 14 146 0.0 6.4 0.00 0.00 0.00 67
20260502055447 13 146 1.6 11.3 0.00 0.00 0.00 66
20260502055218 13 146 1.6 11.3 0.00 0.00 0.00 67
20260502054447 13 141 1.6 9.7 0.00 0.00 0.00 67
20260502054219 13 141 1.6 9.7 0.00 0.00 0.00 68
20260502053435 13 141 1.6 9.7 0.00 0.00 0.00 68
20260502052924 12 140 1.6 9.7 0.00 0.00 0.00 69
20260502052411 12 140 1.6 9.7 0.00 0.00 0.00 70
20260502051902 11 146 3.2 12.9 0.00 0.00 0.00 71
20260502051401 11 140 1.6 12.9 0.00 0.00 0.00 72
20260502050901 11 144 1.6 8.0 0.00 0.00 0.00 74
20260502050401 10 144 1.6 8.0 0.00 0.00 0.00 76
20260502045900 10 144 1.6 8.0 0.00 0.00 0.00 76
20260502045631 10 144 1.6 9.7 0.00 0.00 0.00 76
20260502044900 9 144 0.0 9.7 0.00 0.00 0.00 76
20260502044401 9 144 0.0 8.0 0.00 0.00 0.00 76
20260502043900 9 144 0.0 3.2 0.00 0.00 0.00 76
20260502043355 9 144 0.0 6.4 0.00 0.00 0.00 76
20260502043115 9 144 0.0 9.7 0.00 0.00 0.00 76
20260502042612 9 144 0.0 9.7 0.00 0.00 0.00 76
20260502041841 9 144 0.0 8.0 0.00 0.00 0.00 76
20260502041612 9 144 0.0 8.0 0.00 0.00 0.00 76
20260502040840 9 144 0.0 9.7 0.00 0.00 0.00 75
20260502040341 9 143 0.0 9.7 0.00 0.00 0.00 75
20260502035841 9 144 0.0 12.9 0.00 0.00 0.00 75
20260502035341 9 144 0.0 12.9 0.00 0.00 0.00 74
20260502034837 10 143 0.0 4.8 0.00 0.00 0.00 74
20260502034335 10 143 1.6 11.3 0.00 0.00 0.00 74
20260502033835 10 143 1.6 11.3 0.00 0.00 0.00 74
20260502033335 10 143 0.0 6.4 0.00 0.00 0.00 73
20260502032836 10 143 0.0 9.7 0.00 0.00 0.00 73
20260502032333 10 143 0.0 9.7 0.00 0.00 0.00 72
20260502031826 10 143 0.0 6.4 0.00 0.00 0.00 72
20260502031317 10 143 0.0 6.4 0.00 0.00 0.00 72
20260502030811 11 143 0.0 3.2 0.00 0.00 0.00 71
20260502030544 11 143 1.6 11.3 0.00 0.00 0.00 71
20260502025809 11 143 1.6 11.3 0.00 0.00 0.00 71
20260502025308 11 142 1.6 9.7 0.00 0.00 0.00 71
20260502024808 11 142 1.6 12.9 0.00 0.00 0.00 71
20260502024307 11 142 3.2 12.9 0.00 0.00 0.00 71
20260502023807 11 136 1.6 12.9 0.00 0.00 0.00 71
20260502023538 11 124 1.6 12.9 0.00 0.00 0.00 71
20260502023528 11 124 1.6 11.3 0.00 0.00 0.00 71
20260502022307 11 124 1.6 11.3 0.00 0.00 0.00 71
20260502021807 11 127 1.6 11.3 0.00 0.00 0.00 71
20260502021308 11 128 1.6 11.3 0.00 0.00 0.00 71
20260502021035 11 129 1.6 19.3 0.00 0.00 0.00 71
20260502020303 11 128 1.6 19.3 0.00 0.00 0.00 70
20260502015803 11 145 1.6 9.7 0.00 0.00 0.00 70
20260502015301 11 145 0.0 9.7 0.00 0.00 0.00 70
20260502014753 12 145 0.0 9.7 0.00 0.00 0.00 69
20260502014514 12 145 1.6 11.3 0.00 0.00 0.00 69
20260502013734 12 144 1.6 12.9 0.00 0.00 0.00 69
20260502013231 12 119 1.6 12.9 0.00 0.00 0.00 70
20260502012726 12 120 1.6 11.3 0.00 0.00 0.00 70
20260502012218 12 119 1.6 11.3 0.00 0.00 0.00 69
20260502011715 12 119 1.6 16.1 0.00 0.00 0.00 69
20260502011203 12 119 1.6 16.1 0.00 0.00 0.00 70
20260502010701 12 119 1.6 11.3 0.00 0.00 0.00 70
20260502010205 12 119 1.6 6.4 0.00 0.00 0.00 70
20260502005921 12 119 1.6 12.9 0.00 0.00 0.00 69